GEFSGL_500_meanwind_228.txt.gz
Wind_Speed
13 12 12 12 12 12 12 12 12 12 11 11 11 12 12 12 12 11 11 11 12 12 12 12 13 13 13 12 12 13 14 14 14 14 15 16 16 16 16 16 17 17 17
14 13 13 12 13 13 12 12 13 13 13 13 13 13 13 13 13 13 12 12 12 12 13 13 13 14 14 14 14 14 15 15 15 15 15 16 16 17 17 17 17 17 17
14 14 14 14 14 14 13 13 14 15 15 15 14 14 14 14 15 14 14 13 13 14 14 14 14 15 15 15 15 15 15 16 16 16 16 17 17 17 17 17 18 18 18
15 15 15 15 15 15 15 14 15 15 15 15 15 15 15 15 15 16 16 15 15 15 15 15 15 16 16 16 15 15 16 17 17 17 18 18 18 18 18 18 19 19 19
15 16 16 16 16 15 15 15 16 16 15 16 16 17 16 16 16 16 17 17 16 16 16 16 16 17 17 16 16 16 17 17 18 18 18 18 18 18 19 19 20 21 21
16 17 17 17 17 17 16 17 17 17 17 17 18 18 17 17 17 17 17 17 18 17 17 17 17 18 18 18 18 18 18 18 18 19 19 19 19 20 20 21 22 23 23
17 18 18 18 18 19 18 18 18 19 19 19 19 19 18 18 18 19 19 19 20 19 19 19 19 19 19 18 18 18 18 19 19 19 19 20 20 21 22 23 24 24 25
19 19 19 19 19 20 20 19 19 20 20 20 20 20 20 20 20 20 21 20 20 20 19 19 19 19 18 18 19 20 20 20 21 21 22 21 21 22 23 24 24 25 26
19 20 20 20 19 19 18 19 20 20 20 20 20 20 21 20 20 20 20 20 20 20 20 20 19 19 19 19 20 20 21 22 22 22 22 23 23 24 24 25 25 26 27
19 19 20 19 19 20 20 20 20 20 20 20 21 21 21 21 21 21 21 20 20 20 21 21 20 21 21 21 21 21 22 22 23 23 24 25 25 26 27 27 28 28 29
20 20 21 21 21 21 21 21 20 20 20 21 21 21 21 21 21 21 20 20 20 21 21 21 22 22 22 22 23 23 23 24 24 25 26 26 27 28 29 29 29 30 30
22 22 22 22 21 22 22 22 22 21 21 21 21 21 21 21 22 21 21 21 21 22 22 22 23 23 23 23 23 23 23 24 25 26 27 27 27 28 28 29 30 31 31
23 23 23 23 23 22 23 23 23 22 22 22 21 21 21 22 22 22 22 22 22 22 22 23 23 23 24 23 23 24 25 25 26 26 26 27 28 29 29 30 31 32 33
23 23 23 23 23 23 23 23 24 23 23 23 22 22 22 22 22 22 22 22 22 23 22 23 23 24 24 25 26 26 26 26 26 27 28 29 29 30 30 31 32 33 34
23 23 23 24 23 24 24 24 24 24 24 24 23 23 22 22 22 22 23 23 24 24 24 24 24 25 25 26 26 27 28 28 28 29 29 29 30 31 31 32 32 33 35
24 24 23 23 23 23 23 24 24 24 24 25 24 23 23 23 23 23 24 25 25 25 25 25 26 26 27 27 28 28 28 29 29 30 30 30 30 31 32 33 33 34 35
25 24 23 24 24 23 23 23 24 24 24 25 25 25 24 24 24 24 25 25 25 26 26 25 26 27 27 28 28 29 29 29 30 30 30 30 31 32 33 34 35 36 36
26 25 24 24 24 24 24 24 24 24 24 24 24 25 25 25 25 25 26 26 26 27 27 27 27 27 28 28 29 29 29 29 30 31 31 32 33 34 34 35 36 38 38
26 26 25 25 25 25 25 25 25 25 25 25 25 25 26 26 26 26 26 27 27 27 27 27 27 28 28 28 29 29 30 31 31 32 32 33 34 35 36 37 38 39 39
26 26 26 25 25 25 25 26 26 26 26 26 26 27 27 27 27 27 27 27 28 28 28 28 29 30 29 30 30 30 31 32 32 33 33 34 35 36 37 38 39 40 40
25 25 25 25 25 25 26 26 26 26 26 26 26 27 28 27 27 27 28 28 28 28 29 29 30 30 30 30 30 31 32 33 33 34 35 36 36 37 38 39 40 41 41
25 25 25 25 25 25 26 26 27 27 27 27 27 28 28 29 28 29 28 28 29 30 31 30 30 31 31 31 32 33 33 34 35 35 36 37 38 39 40 41 41 41 42
25 25 25 25 25 26 26 26 27 27 28 29 28 29 29 29 29 29 29 30 30 31 31 32 32 32 32 32 33 34 35 35 36 37 38 38 39 40 41 42 42 42 42
27 26 26 26 27 27 27 27 28 28 28 29 29 30 30 30 30 30 31 31 31 32 32 32 33 33 33 33 34 35 35 36 37 38 39 40 40 41 42 43 42 42 43
28 28 28 28 28 28 28 29 29 29 29 29 30 30 31 31 31 32 32 32 32 32 33 33 34 34 34 35 36 37 37 38 38 39 40 41 41 42 43 43 43 43 44
30 30 30 30 30 29 29 30 30 31 31 31 31 31 31 32 32 32 32 32 33 33 34 34 34 35 35 36 37 38 39 39 40 41 42 43 43 44 44 44 43 44 44

GEFSGL_500_meanwind_234.txt.gz
Wind_Speed
14 14 14 14 15 15 14 13 13 13 13 13 12 12 11 12 12 12 12 12 12 12 12 13 13 13 14 14 14 14 14 13 13 13 14 14 15 14 15 15 15 16 16
15 15 14 14 15 15 14 14 14 14 14 14 13 13 13 13 13 13 13 13 13 13 13 13 13 14 14 14 15 14 14 14 14 14 14 15 15 16 16 15 15 15 16
16 16 16 16 16 15 15 15 15 15 15 15 14 14 14 14 14 14 14 14 14 14 14 14 14 14 14 14 15 15 15 15 15 15 15 15 16 16 16 16 17 17 18
16 17 17 17 16 16 16 16 16 16 16 16 16 16 15 15 15 15 15 16 15 15 15 15 15 15 15 15 15 16 16 16 16 16 16 16 16 17 17 18 18 18 19
17 17 17 17 17 16 16 17 17 17 17 17 17 16 16 16 17 17 17 17 16 17 17 16 16 16 16 16 16 16 17 17 16 17 17 17 17 18 18 18 19 19 20
19 18 18 18 17 18 18 18 18 18 18 18 18 17 17 17 17 18 18 18 18 18 18 18 18 18 18 17 17 17 17 17 17 17 18 18 18 18 19 19 20 20 21
20 19 18 18 19 19 19 19 19 19 19 19 19 19 19 19 18 18 18 18 19 19 19 19 20 20 19 19 19 19 19 19 20 21 20 20 20 20 20 21 22 22 23
20 20 19 19 19 19 19 19 19 20 20 20 20 20 20 19 19 19 20 20 20 20 20 20 20 20 20 20 20 20 21 21 22 22 22 22 23 23 23 23 24 24 24
21 20 19 19 19 19 18 18 19 19 20 20 21 21 21 20 20 20 20 20 20 20 19 19 19 19 20 20 21 21 22 22 23 23 24 24 24 24 25 25 25 25 25
21 20 19 19 19 20 19 19 19 20 20 21 21 21 21 20 20 20 20 20 20 20 20 19 19 20 21 21 21 22 22 22 23 23 24 24 24 24 25 25 26 26 26
21 20 20 20 19 19 19 19 20 20 20 20 21 21 21 21 21 20 20 20 21 21 21 20 20 21 21 21 22 22 22 23 23 24 24 25 25 25 25 25 26 27 27
21 21 21 21 20 20 20 20 20 20 20 20 21 21 21 21 21 21 21 21 21 22 22 22 21 22 22 22 22 23 23 23 24 24 24 25 25 26 26 26 27 27 28
22 22 22 22 21 21 21 20 20 20 21 21 22 22 22 22 22 22 22 22 23 23 22 22 22 22 23 23 22 23 24 24 24 25 25 25 26 27 27 27 28 29 30
23 23 23 22 22 22 22 21 21 21 21 22 22 23 23 22 23 23 24 23 22 22 22 22 23 23 23 23 23 24 25 26 26 26 26 26 27 27 27 28 29 29 30
24 24 24 24 23 22 22 22 22 22 22 23 23 23 23 23 22 23 23 23 23 23 23 24 23 24 24 24 25 25 26 26 26 26 26 27 28 28 29 30 30 30 31
25 24 24 24 24 24 24 23 23 24 24 24 24 23 23 24 24 24 24 24 24 24 25 25 25 25 25 25 26 26 26 27 27 27 27 28 29 30 30 31 31 31 32
26 26 25 25 25 25 25 25 24 24 25 25 24 24 24 25 25 25 26 25 25 25 25 26 26 26 26 26 27 27 27 27 27 27 28 29 30 31 31 31 32 33 33
26 26 26 26 26 25 25 25 25 25 25 25 26 25 25 25 26 26 26 26 26 26 26 26 27 27 27 27 28 27 27 27 27 28 29 29 30 31 31 32 33 34 35
26 26 27 26 26 26 25 25 25 26 26 26 26 26 26 26 26 26 27 27 27 27 27 27 27 27 28 28 28 28 28 28 28 29 30 30 31 32 32 33 34 35 36
26 27 27 27 27 27 26 26 26 26 26 26 26 27 27 27 26 27 27 27 27 28 28 28 28 28 28 29 29 29 29 29 30 31 31 32 33 33 34 35 36 37 38
27 27 28 28 28 27 27 27 27 27 27 27 27 27 27 27 27 28 28 29 29 29 29 29 29 29 29 30 30 31 31 31 31 31 32 33 34 34 35 36 37 38 39
29 29 29 29 29 28 28 28 28 28 28 27 27 27 27 27 28 28 28 29 29 29 29 29 29 28 29 30 31 32 32 32 32 32 33 34 34 35 35 36 38 39 40
30 30 31 30 30 29 29 29 29 29 28 28 28 28 28 28 29 29 29 29 30 30 30 30 30 29 30 31 32 33 32 32 33 33 34 34 35 35 36 37 38 40 41
31 31 31 31 31 31 30 30 30 30 29 29 29 28 28 29 29 30 30 30 30 31 31 31 31 31 32 32 32 33 33 34 34 34 35 36 37 38 38 39 40 41 42
31 31 31 31 31 31 31 31 31 31 31 30 30 29 29 30 30 31 31 31 31 31 32 32 32 33 33 33 33 34 34 35 36 36 37 38 39 40 40 41 41 42 43
31 31 31 32 31 31 31 31 31 31 31 31 31 31 31 31 31 31 31 31 32 32 33 33 33 33 34 34 34 34 35 36 37 38 38 39 40 40 41 42 42 43 43

GEFSGL_500_meanwind_240.txt.gz
Wind_Speed
15 15 15 16 16 15 14 14 14 14 14 14 14 14 14 13 14 14 14 13 13 13 13 13 13 13 13 13 13 13 13 13 13 13 13 13 13 14 14 15 15 16 17
15 15 16 16 16 16 16 16 16 15 15 15 15 15 15 15 15 15 14 14 15 15 15 15 15 14 14 14 13 13 13 13 13 13 13 14 14 15 15 16 16 17 17
17 16 16 17 17 17 17 17 17 16 16 16 16 16 16 16 16 16 16 16 16 16 16 16 16 16 15 15 14 14 14 14 14 15 15 15 16 16 16 16 17 17 18
18 18 18 18 18 18 17 18 18 18 18 18 17 17 17 17 17 17 17 17 17 17 17 17 17 17 16 16 16 15 16 16 16 16 17 17 17 17 17 18 18 19 18
19 19 19 18 19 19 18 19 19 19 19 19 19 19 19 19 18 18 18 18 18 18 18 18 18 18 18 17 17 17 17 17 17 18 18 18 18 19 19 20 20 20 20
20 20 20 19 19 19 19 19 19 19 20 20 20 20 20 20 19 19 19 18 19 19 19 19 19 18 18 18 18 19 19 18 18 19 19 20 20 20 21 21 21 21 21
22 22 22 21 20 20 20 20 20 20 20 20 20 20 20 20 19 19 19 19 19 19 19 19 19 19 19 19 19 18 19 19 19 20 20 21 21 21 21 21 22 22 23
23 23 23 22 22 21 21 20 20 20 20 20 20 20 20 20 20 20 20 20 20 20 20 20 20 20 20 20 20 20 20 20 20 21 22 22 21 22 22 22 23 23 24
24 24 24 24 23 22 21 21 20 20 20 20 20 20 20 20 21 21 20 20 20 20 20 21 21 21 21 21 21 21 21 21 22 22 22 22 22 23 23 23 23 24 24
25 24 24 24 23 22 21 21 21 20 20 21 21 21 20 20 19 19 20 19 20 20 20 20 21 21 21 21 21 21 22 22 22 23 22 22 22 23 24 24 24 24 24
26 25 24 24 23 22 22 22 21 21 21 21 21 21 21 20 20 20 20 21 21 21 20 20 21 21 22 22 22 22 23 23 23 23 23 23 23 23 24 25 25 26 26
26 25 24 24 23 23 22 22 21 21 21 21 21 21 20 20 20 21 21 21 21 21 21 21 21 22 23 23 23 23 24 24 24 24 24 24 24 25 25 26 26 26 26
26 25 25 24 23 23 23 22 22 21 21 21 21 21 21 21 21 21 22 22 22 22 22 23 22 23 24 25 25 25 25 25 25 25 25 25 26 27 27 27 27 28 27
26 25 25 25 24 23 23 23 23 23 22 22 22 22 22 22 22 22 23 23 23 23 24 24 25 25 25 26 26 26 26 26 26 26 26 26 27 27 27 27 28 28 28
26 26 26 25 25 24 24 24 24 24 24 24 24 24 24 23 24 24 24 24 25 25 25 25 26 26 26 26 26 26 26 26 26 27 27 27 27 28 28 28 29 29 29
26 26 26 26 26 25 25 24 25 25 25 25 25 25 25 25 25 25 25 25 25 26 26 26 26 27 27 27 26 26 26 27 27 28 28 28 28 28 28 28 28 29 30
27 27 26 26 27 26 26 25 25 25 25 25 26 25 26 26 26 26 26 26 26 26 26 26 27 28 28 28 27 27 27 27 28 28 29 28 29 29 29 29 29 29 30
28 28 28 27 27 27 27 26 26 26 26 26 27 27 27 27 27 26 26 27 27 27 27 27 28 28 28 28 28 28 28 28 28 28 28 29 29 29 29 29 29 30 30
29 29 29 29 28 28 27 27 27 28 28 28 28 28 28 28 28 28 28 28 28 28 28 28 29 29 29 29 29 29 29 29 29 29 29 29 29 29 29 30 30 30 31
30 30 30 30 29 29 29 28 28 28 28 29 29 29 29 29 28 28 29 29 29 29 30 30 30 30 30 30 30 30 30 30 30 30 30 30 31 31 31 31 31 32 33
31 30 30 30 30 30 30 30 30 29 29 30 30 30 30 30 30 30 30 30 30 31 31 31 31 30 31 31 31 31 31 31 31 31 31 32 31 32 32 33 33 34 35
29 29 29 29 30 30 30 30 30 30 30 30 30 31 31 31 31 31 31 31 31 31 31 31 31 31 31 31 31 31 31 31 32 32 33 33 33 33 33 34 35 35 36
29 29 29 30 29 30 31 31 31 30 30 30 30 31 31 31 31 31 31 31 31 31 31 31 31 31 30 31 32 32 32 32 32 33 34 34 33 33 34 35 36 36 36
29 29 29 30 30 30 31 30 31 31 30 30 30 31 31 31 31 32 32 31 31 32 32 32 32 32 32 32 32 33 33 33 33 34 34 34 34 34 35 36 36 37 37
31 30 30 30 31 31 31 31 31 31 31 31 31 31 31 32 32 32 32 32 31 32 32 32 32 32 33 33 32 33 34 34 34 34 35 35 35 35 36 36 36 37 39
31 31 31 32 32 32 33 33 33 32 32 32 32 32 32 32 32 32 32 32 32 33 33 33 32 32 32 33 33 33 33 34 34 35 35 35 35 35 35 36 37 38 40

GEFSGL_500_meanwind_246.txt.gz
Wind_Speed
15 15 14 14 15 15 15 15 15 15 15 16 16 15 15 15 14 14 14 14 14 14 14 14 14 13 13 13 13 12 12 12 12 12 13 13 13 13 14 13 13 13 13
16 16 16 15 15 16 16 16 16 16 16 16 16 16 16 16 16 16 15 14 15 15 15 15 15 14 14 14 13 13 13 14 14 14 14 14 14 15 15 15 14 14 15
18 17 16 16 17 17 17 17 17 17 16 17 17 17 17 18 18 17 17 16 15 16 16 15 15 15 15 14 14 14 14 15 15 15 15 15 15 15 15 16 15 15 16
19 18 18 17 18 18 18 18 18 18 18 18 18 18 18 18 18 18 18 17 17 16 16 16 16 16 16 15 15 15 16 16 16 16 16 16 16 16 16 17 17 17 18
19 19 19 19 18 18 18 18 18 18 18 18 18 19 19 19 19 19 19 18 18 17 17 17 17 17 17 17 17 17 17 17 17 17 17 17 17 17 17 17 18 18 19
20 20 20 20 20 20 19 19 19 19 19 18 18 19 19 19 19 19 20 20 20 19 19 18 19 18 18 18 18 19 18 18 18 18 18 18 18 18 18 18 18 19 19
21 21 22 22 22 22 21 21 20 20 20 19 18 18 18 18 18 19 19 19 19 19 19 19 19 19 19 19 20 20 20 20 19 19 19 19 19 19 19 20 20 20 20
23 23 23 23 23 23 22 22 21 21 20 20 20 19 19 19 19 20 20 19 19 19 19 19 19 20 20 20 20 20 20 20 20 20 20 20 20 20 20 21 22 22 22
24 23 24 23 23 23 22 22 21 21 21 20 21 20 20 20 20 19 19 19 19 19 19 19 20 20 20 20 20 20 20 20 20 21 21 21 21 22 22 22 22 23 23
24 24 24 24 23 23 23 22 22 22 21 21 21 21 21 21 21 20 20 20 20 20 19 19 20 21 21 21 21 21 21 22 22 23 22 22 23 23 23 23 24 24 24
25 24 24 24 24 23 23 23 23 22 22 22 22 21 21 21 21 21 21 21 21 21 21 21 21 21 22 22 22 22 22 23 24 24 24 23 24 24 24 25 25 25 25
26 25 25 26 25 24 24 24 24 24 24 23 23 22 22 22 22 21 21 21 21 21 21 21 22 22 22 22 22 22 22 22 24 24 24 24 24 25 25 26 27 27 27
27 26 26 27 26 25 25 25 25 25 24 24 23 23 23 22 22 22 22 22 22 22 22 22 23 23 23 23 23 23 23 23 23 24 25 25 25 25 26 26 27 27 28
28 27 26 27 26 26 25 25 24 25 25 25 24 24 24 23 23 23 23 24 24 24 24 24 24 24 24 24 25 25 25 25 25 26 26 26 26 26 26 27 27 27 28
28 27 27 27 27 27 26 26 25 25 25 25 25 25 25 25 25 25 25 25 25 25 26 26 26 25 25 26 26 27 27 27 27 27 27 27 27 27 27 27 27 28 28
29 28 27 27 27 27 27 27 26 26 26 26 26 27 27 27 27 27 27 27 27 26 26 26 26 27 27 27 27 28 28 29 28 28 28 29 28 28 28 28 28 29 29
29 29 29 28 28 28 28 27 27 27 27 27 27 27 28 27 27 27 28 28 28 28 27 27 28 28 28 28 28 29 29 30 30 29 29 30 30 29 29 30 29 30 30
30 30 30 30 29 30 29 28 28 28 28 27 27 28 28 28 27 28 28 28 28 28 28 28 29 29 29 29 29 30 30 30 30 30 30 31 31 31 30 30 31 31 31
31 31 32 31 31 31 30 29 29 29 29 28 28 28 28 28 28 28 28 28 29 29 29 29 29 30 30 30 30 30 31 31 31 30 30 31 31 31 31 32 32 32 33
32 32 33 32 32 31 31 30 30 29 29 29 29 29 29 29 29 28 28 29 29 29 29 29 30 30 30 30 30 30 31 31 31 31 31 32 32 33 33 33 33 33 33
33 32 32 32 32 32 31 31 30 30 30 29 30 30 30 29 29 29 29 29 30 30 30 30 30 30 31 31 31 31 31 32 32 32 32 33 33 34 34 35 35 34 35
32 32 32 32 32 32 31 31 30 30 30 30 30 30 30 30 29 29 30 30 30 31 31 31 30 31 31 31 31 32 32 32 33 33 33 33 33 34 34 34 35 36 36
31 31 32 31 31 31 31 31 31 30 31 31 31 30 31 30 30 30 30 31 31 31 31 31 31 31 31 31 31 32 32 32 33 33 33 33 33 33 34 34 35 36 36
32 31 31 31 31 32 31 31 31 31 31 31 31 32 32 31 31 31 31 31 31 31 31 31 31 32 32 32 32 32 32 32 33 33 33 33 33 33 33 34 35 35 36
31 31 31 31 31 32 31 31 30 31 32 32 32 32 32 31 31 31 31 31 32 32 32 33 33 33 33 33 33 33 33 33 33 33 33 33 33 33 33 34 34 35 36
32 31 31 30 30 31 30 30 30 31 31 31 31 31 32 32 32 32 32 32 32 32 33 34 34 34 34 34 34 34 34 34 34 34 33 33 33 33 33 33 33 34 35

GEFSGL_500_meanwind_252.txt.gz
Wind_Speed
16 16 16 17 17 16 16 16 15 16 17 16 16 16 17 17 17 17 17 17 16 17 17 16 16 16 15 15 15 15 15 16 16 15 15 14 14 14 14 14 14 14 14
17 17 17 18 18 17 17 17 17 17 17 18 17 17 18 19 19 18 18 18 18 18 18 17 17 16 16 16 15 16 16 16 16 16 15 15 14 14 14 15 15 15 15
18 19 19 19 19 18 18 18 18 18 18 18 18 18 18 18 18 18 18 18 18 18 18 18 17 17 17 17 16 16 16 16 16 16 16 16 16 15 15 15 16 16 16
19 19 20 20 19 19 19 19 20 19 19 18 18 19 19 19 18 18 18 18 18 18 18 17 17 17 17 17 17 17 17 16 16 16 17 17 17 17 17 17 17 17 17
20 20 21 21 20 19 19 19 20 19 19 19 19 19 19 19 19 19 19 19 19 18 18 18 17 17 17 17 17 17 17 17 17 17 17 17 18 18 18 18 18 18 18
21 21 21 20 20 19 19 20 20 20 20 20 20 19 19 19 19 20 20 20 19 19 18 18 18 18 17 17 17 17 18 18 18 18 19 19 19 20 20 20 20 20 20
21 21 21 21 21 20 21 21 21 21 21 21 20 20 20 20 20 21 21 21 19 19 19 19 19 18 19 19 19 19 19 19 20 20 20 21 21 21 21 20 21 21 21
23 23 22 22 22 21 21 22 22 22 22 21 21 22 21 21 21 21 20 20 20 19 19 19 19 19 20 20 20 20 20 20 20 20 20 20 21 21 21 21 21 21 22
24 24 23 23 22 22 22 22 22 22 23 23 23 23 22 22 22 22 21 21 21 21 20 20 19 20 21 21 21 21 21 20 20 20 20 21 21 22 22 23 22 22 23
25 24 24 23 23 23 23 24 24 24 24 24 24 23 23 23 23 22 22 22 22 22 22 22 22 23 23 22 22 22 22 22 22 22 22 22 22 22 23 23 23 24 25
26 26 25 24 24 24 25 25 25 25 26 26 25 24 24 24 24 24 24 24 24 24 24 24 24 24 24 24 24 24 23 23 23 23 22 21 22 23 24 24 24 25 25
28 27 26 26 25 25 26 26 26 26 26 26 26 25 25 25 25 25 25 25 25 25 25 25 25 25 25 25 25 25 25 24 24 24 24 23 23 24 25 25 26 26 27
29 29 28 28 28 27 27 27 27 26 26 26 26 26 26 25 25 25 26 26 26 26 25 26 26 25 25 26 26 26 26 26 26 26 26 25 25 26 27 27 27 27 28
30 30 30 30 29 29 29 28 28 28 28 27 27 27 27 26 26 26 26 26 26 26 26 26 27 27 27 27 27 27 27 27 27 27 28 27 27 27 27 27 28 28 28
31 32 32 32 31 31 30 29 29 29 29 29 29 28 27 27 27 27 27 27 27 27 27 28 28 28 28 28 28 28 29 29 29 29 29 29 29 28 28 28 29 29 30
32 33 33 33 32 32 31 30 30 30 30 30 30 29 29 29 28 28 28 28 29 30 29 28 28 28 28 28 28 29 29 30 30 30 30 30 30 29 29 30 30 30 30
34 33 34 34 34 33 32 32 31 31 32 32 32 31 31 30 30 29 29 30 30 31 30 29 28 28 28 29 29 30 30 30 30 30 30 30 30 30 30 30 31 31 32
35 34 34 34 35 35 35 34 34 33 33 32 33 33 32 32 31 30 31 31 31 30 30 30 29 29 29 29 30 30 30 30 31 31 31 31 31 31 31 31 32 33 33
35 34 35 36 36 35 36 35 35 35 34 34 34 34 34 33 32 32 32 31 31 30 30 30 30 30 30 30 30 30 30 31 31 32 32 32 32 31 32 32 33 33 33
35 35 36 36 36 36 36 35 35 35 35 34 34 34 34 33 33 32 32 31 30 30 30 30 30 30 31 31 31 31 31 31 31 31 32 33 33 32 33 33 34 34 33
35 36 36 37 37 37 37 37 37 36 36 36 35 34 34 33 32 32 32 32 31 31 30 30 31 31 31 31 31 31 31 31 31 32 32 33 33 33 33 33 34 34 34
36 36 36 37 37 38 38 38 38 37 38 37 35 34 34 34 33 33 33 33 32 31 31 31 32 32 32 32 32 32 32 32 32 33 33 34 34 34 34 34 35 34 34
36 36 36 37 37 38 38 38 38 38 38 38 37 36 35 34 34 34 33 33 32 32 32 32 32 32 32 32 32 32 33 33 33 34 34 34 35 34 34 34 35 35 36
36 35 35 36 36 36 36 36 36 36 36 36 36 35 34 34 34 34 33 33 32 32 32 32 32 32 32 33 33 33 33 33 34 34 35 35 35 35 34 35 35 36 36
36 35 35 35 35 35 35 35 35 35 35 35 34 34 35 35 34 34 34 34 33 33 33 33 33 33 33 33 33 33 33 33 33 34 35 35 35 34 34 34 34 35 35
34 34 34 34 34 34 34 34 35 34 34 34 34 34 35 34 34 34 34 34 34 34 34 34 35 34 34 34 34 34 34 34 34 34 34 35 35 34 34 34 34 34 34

GEFSGL_500_meanwind_258.txt.gz
Wind_Speed
16 16 16 16 16 17 17 16 16 16 16 16 16 16 16 15 15 15 16 16 16 15 15 15 16 16 16 16 15 15 15 15 15 15 15 15 15 15 16 16 15 15 15
17 18 18 17 17 17 17 17 17 17 17 17 16 16 16 16 16 16 17 16 16 16 16 16 16 16 16 16 15 15 15 15 16 16 16 16 16 16 16 16 16 15 15
18 18 18 18 18 18 18 17 17 18 18 17 17 17 17 17 17 17 18 17 17 17 17 17 17 17 17 17 16 16 15 15 16 16 16 16 16 16 16 16 17 17 16
19 19 19 19 19 19 19 18 18 18 18 18 18 18 18 18 18 18 19 19 19 19 18 18 18 18 18 18 17 17 16 16 16 16 16 16 16 17 17 17 17 18 18
20 20 20 20 19 19 19 19 19 19 19 19 19 19 19 19 19 19 19 19 19 20 19 19 19 19 19 19 18 17 17 17 17 17 16 16 17 17 17 18 18 19 19
22 22 21 21 21 21 20 20 20 19 19 19 19 19 19 19 19 19 20 20 20 20 20 20 20 20 20 20 19 18 18 18 18 18 18 18 17 18 18 19 19 20 20
23 23 22 23 22 21 21 21 21 20 20 20 20 20 20 20 20 20 20 21 21 21 21 21 21 22 22 22 21 20 20 20 20 20 20 19 19 19 19 19 20 21 21
23 23 23 23 23 22 22 22 22 22 22 21 21 21 21 21 21 21 22 22 22 22 22 22 22 22 22 22 22 22 22 21 21 21 21 21 21 21 21 21 21 22 22
25 25 24 24 23 24 23 23 23 23 23 22 22 22 22 22 22 23 23 23 23 23 23 23 23 23 23 23 23 23 22 22 22 22 22 22 23 23 23 23 23 23 23
26 26 26 25 25 25 25 25 25 25 24 24 24 24 24 24 24 24 24 24 24 24 24 24 24 24 23 24 24 24 24 24 24 24 24 24 24 24 24 24 24 24 25
28 27 27 27 27 27 27 27 27 26 26 26 26 26 26 26 26 26 26 26 25 25 25 25 25 24 24 24 24 24 24 25 25 25 26 25 25 26 25 25 25 25 25
30 29 29 29 29 28 28 28 28 28 28 28 27 27 27 27 28 28 28 27 27 27 26 26 25 25 25 24 25 25 25 26 26 26 26 26 27 27 27 26 26 26 27
31 31 30 30 30 29 29 29 29 29 30 30 29 29 29 29 28 28 28 28 27 27 26 26 26 26 26 26 26 27 27 27 27 27 27 27 28 28 28 27 27 28 28
31 31 31 32 31 31 31 31 31 31 31 31 31 31 30 30 29 29 29 29 29 28 28 28 28 28 27 26 27 27 28 28 28 28 27 27 28 28 28 28 28 28 29
31 31 32 32 32 32 32 32 32 32 32 32 32 32 32 31 31 31 31 31 31 30 30 29 29 29 29 28 28 28 28 28 28 28 28 28 28 28 29 29 29 29 29
33 32 32 33 33 34 34 34 35 34 34 34 34 34 33 33 33 33 33 32 31 31 30 30 30 30 30 29 29 29 29 29 29 29 29 29 29 29 30 30 29 29 30
35 34 34 34 34 35 35 36 36 36 36 36 35 35 34 34 34 33 33 33 32 32 32 31 31 31 30 30 30 30 30 30 29 29 30 30 30 31 30 30 30 30 30
35 36 36 36 35 35 35 36 36 36 36 36 36 35 35 35 34 34 34 34 34 33 33 33 32 32 32 31 31 31 31 31 30 30 31 31 31 32 32 32 32 32 32
35 36 36 36 37 37 36 37 37 37 37 37 37 37 36 36 36 35 35 35 34 34 33 33 33 32 32 32 32 32 32 32 31 32 32 32 32 32 33 33 33 33 33
36 36 37 37 38 38 38 38 38 38 38 38 39 38 37 37 37 37 37 37 36 35 34 34 33 33 32 32 32 32 33 33 33 33 33 33 33 33 33 34 34 33 33
36 37 37 38 38 38 38 39 39 39 40 40 40 39 38 38 38 38 38 37 36 35 35 34 34 33 33 32 33 33 34 34 34 34 34 34 34 34 34 34 34 34 34
36 37 38 38 39 39 39 39 39 40 40 40 40 40 40 40 39 38 38 37 36 36 36 35 34 34 33 33 33 33 33 34 34 34 35 35 34 34 34 34 34 34 34
36 37 38 38 38 38 39 39 38 39 39 39 39 39 39 39 38 38 37 37 37 36 36 36 36 36 35 35 35 35 35 34 34 35 36 36 35 35 35 34 34 34 34
35 36 36 37 38 38 38 38 38 38 38 38 38 39 39 38 38 38 38 38 37 37 37 37 36 36 35 36 36 36 36 36 36 36 36 36 36 36 36 36 35 35 35
32 33 34 35 36 36 36 36 37 37 37 36 36 37 38 38 38 38 38 38 37 37 37 37 37 37 37 37 36 36 36 36 37 37 37 36 36 36 36 36 36 35 35
31 32 32 33 34 34 34 34 35 35 35 35 35 35 35 36 36 37 37 38 38 37 37 37 37 37 37 36 36 36 36 37 37 37 37 36 36 36 36 36 36 36 36